• In Netherlands
  • List of Countries
  • For 7 days
  • Water Temperature
  • Satellite Maps
  • Weather Map
  • Weather Widgets
  • user-avatar
    Login

    Hourly Weather Ahtopol

    Today, 25 March, Saturday

    Time Temperature Precipitation Wind Pressure Humidity
    00:00 +8°C° 0 mm 1 mps 764 mmHg 81%
    01:00 +8°C° 0 mm 1 mps 764 mmHg 81%
    02:00 +7°C° 0 mm 0 mps 763 mmHg 81%
    03:00 +7°C° 0 mm 0 mps 763 mmHg 81%
    04:00 +7°C° 0 mm 0 mps 763 mmHg 81%
    05:00 +8°C° 0 mm 1 mps 763 mmHg 80%
    06:00 +9°C° 0 mm 1 mps 764 mmHg 76%
    07:00 +11°C° 0 mm 1 mps 764 mmHg 72%
    08:00 +13°C° 0 mm 2 mps 764 mmHg 68%
    09:00 +13°C° 0 mm 3 mps 764 mmHg 67%
    10:00 +14°C° 0 mm 3 mps 764 mmHg 66%
    11:00 +15°C° 0 mm 4 mps 764 mmHg 65%
    12:00 +14°C° 0 mm 4 mps 764 mmHg 68%
    13:00 +14°C° 0 mm 5 mps 763 mmHg 70%
    14:00 +14°C° 0 mm 5 mps 763 mmHg 73%
    15:00 +13°C° 0 mm 4 mps 763 mmHg 76%
    16:00 +12°C° 0 mm 4 mps 763 mmHg 80%
    17:00 +11°C° 0 mm 4 mps 763 mmHg 83%
    18:00 +10°C° 0 mm 3 mps 763 mmHg 87%
    19:00 +9°C° 0 mm 2 mps 763 mmHg 91%
    20:00 +8°C° 0 mm 2 mps 763 mmHg 95%
    21:00 +9°C° 0 mm 1 mps 762 mmHg 95%
    22:00 +9°C° 0 mm 1 mps 762 mmHg 95%
    23:00 +8°C° 0 mm 1 mps 762 mmHg 95%

    Tomorrow, 26 March, Sunday

    Time Temperature Precipitation Wind Pressure Humidity
    00:00 +8°C° 0 mm 1 mps 762 mmHg 95%
    01:00 +8°C° 0 mm 1 mps 761 mmHg 95%
    02:00 +8°C° 0 mm 1 mps 761 mmHg 96%
    03:00 +8°C° 0 mm 1 mps 760 mmHg 95%
    04:00 +8°C° 0 mm 1 mps 760 mmHg 95%
    05:00 +8°C° 0 mm 1 mps 759 mmHg 94%
    06:00 +8°C° 0 mm 2 mps 759 mmHg 91%
    07:00 +9°C° 0 mm 2 mps 759 mmHg 88%
    08:00 +12°C° 0 mm 2 mps 759 mmHg 85%
    09:00 +13°C° 0 mm 2 mps 758 mmHg 79%
    10:00 +14°C° 0 mm 3 mps 758 mmHg 74%
    11:00 +16°C° 0 mm 3 mps 758 mmHg 68%
    12:00 +17°C° 0.2 mm 3 mps 758 mmHg 65%
    13:00 +17°C° 0.2 mm 3 mps 757 mmHg 63%
    14:00 +18°C° 0.2 mm 3 mps 757 mmHg 60%
    15:00 +17°C° 0.3 mm 3 mps 757 mmHg 63%
    16:00 +16°C° 0.3 mm 3 mps 757 mmHg 66%
    17:00 +16°C° 0.3 mm 3 mps 757 mmHg 69%
    18:00 +13°C° 0.1 mm 3 mps 757 mmHg 74%
    19:00 +11°C° 0.1 mm 4 mps 758 mmHg 80%
    20:00 +9°C° 0.1 mm 5 mps 758 mmHg 85%
    21:00 +8°C° 0.1 mm 5 mps 759 mmHg 86%
    22:00 +8°C° 0.1 mm 5 mps 759 mmHg 88%
    23:00 +7°C° 0.1 mm 5 mps 760 mmHg 90%

    Day after tomorrow, 27 March, Monday

    Time Temperature Precipitation Wind Pressure Humidity
    00:00 +7°C° 1.1 mm 5 mps 760 mmHg 90%
    01:00 +7°C° 1.1 mm 5 mps 761 mmHg 90%
    02:00 +5°C° 1.1 mm 6 mps 761 mmHg 90%
    03:00 +5°C° 0.5 mm 6 mps 761 mmHg 89%
    04:00 +5°C° 0.5 mm 6 mps 762 mmHg 89%
    05:00 +4°C° 0.5 mm 6 mps 762 mmHg 88%
    06:00 +4°C° 0.1 mm 6 mps 762 mmHg 87%
    07:00 +4°C° 0.1 mm 6 mps 763 mmHg 86%
    08:00 +4°C° 0.1 mm 6 mps 763 mmHg 86%
    09:00 +5°C° 0.1 mm 6 mps 764 mmHg 83%
    10:00 +7°C° 0.1 mm 6 mps 764 mmHg 79%
    11:00 +8°C° 0.1 mm 6 mps 765 mmHg 76%
    12:00 +8°C° 0 mm 6 mps 765 mmHg 75%
    13:00 +8°C° 0 mm 6 mps 765 mmHg 74%
    14:00 +8°C° 0 mm 5 mps 765 mmHg 73%
    15:00 +8°C° 0 mm 5 mps 765 mmHg 72%
    16:00 +8°C° 0 mm 4 mps 765 mmHg 71%
    17:00 +8°C° 0 mm 4 mps 765 mmHg 70%
    18:00 +8°C° 0 mm 3 mps 765 mmHg 75%
    19:00 +6°C° 0 mm 2 mps 766 mmHg 79%
    20:00 +6°C° 0 mm 1 mps 766 mmHg 84%
    21:00 +6°C° 0 mm 1 mps 766 mmHg 83%
    22:00 +5°C° 0 mm 1 mps 767 mmHg 82%
    23:00 +5°C° 0 mm 1 mps 767 mmHg 82%

    28 March, Tuesday

    Time Temperature Precipitation Wind Pressure Humidity
    00:00 +4°C° 0 mm 2 mps 767 mmHg 79%
    01:00 +4°C° 0 mm 2 mps 767 mmHg 77%
    02:00 +4°C° 0 mm 2 mps 767 mmHg 75%
    03:00 +3°C° 0 mm 3 mps 767 mmHg 73%
    04:00 +4°C° 0 mm 3 mps 767 mmHg 71%
    05:00 +4°C° 0 mm 3 mps 767 mmHg 69%
    06:00 +5°C° 0 mm 3 mps 767 mmHg 69%
    07:00 +6°C° 0 mm 4 mps 767 mmHg 69%
    08:00 +6°C° 0 mm 4 mps 767 mmHg 70%
    09:00 +8°C° 0 mm 4 mps 768 mmHg 67%
    10:00 +10°C° 0 mm 4 mps 768 mmHg 64%
    11:00 +11°C° 0 mm 4 mps 768 mmHg 60%
    12:00 +12°C° 0 mm 4 mps 767 mmHg 59%
    13:00 +12°C° 0 mm 4 mps 767 mmHg 57%
    14:00 +13°C° 0 mm 4 mps 766 mmHg 56%
    15:00 +12°C° 0 mm 4 mps 766 mmHg 58%
    16:00 +12°C° 0 mm 3 mps 766 mmHg 60%
    17:00 +12°C° 0 mm 3 mps 766 mmHg 62%
    18:00 +10°C° 0 mm 3 mps 766 mmHg 69%
    19:00 +8°C° 0 mm 2 mps 766 mmHg 76%
    20:00 +6°C° 0 mm 2 mps 767 mmHg 83%
    21:00 +6°C° 0 mm 1 mps 767 mmHg 84%
    22:00 +6°C° 0 mm 1 mps 767 mmHg 85%
    23:00 +4°C° 0 mm 0 mps 767 mmHg 86%

    29 March, Wednesday

    Time Temperature Precipitation Wind Pressure Humidity
    00:00 +5°C° 0 mm 1 mps 767 mmHg 85%
    01:00 +5°C° 0 mm 1 mps 767 mmHg 85%
    02:00 +5°C° 0 mm 1 mps 767 mmHg 85%
    03:00 +5°C° 0 mm 1 mps 767 mmHg 84%
    04:00 +5°C° 0 mm 1 mps 767 mmHg 84%
    05:00 +4°C° 0 mm 2 mps 767 mmHg 84%
    06:00 +6°C° 0 mm 2 mps 767 mmHg 78%
    07:00 +8°C° 0 mm 2 mps 767 mmHg 73%
    08:00 +10°C° 0 mm 2 mps 767 mmHg 68%
    09:00 +12°C° 0 mm 2 mps 767 mmHg 63%
    10:00 +14°C° 0 mm 2 mps 767 mmHg 59%
    11:00 +16°C° 0 mm 3 mps 767 mmHg 54%
    12:00 +16°C° 0 mm 3 mps 766 mmHg 53%
    13:00 +17°C° 0 mm 3 mps 766 mmHg 53%
    14:00 +17°C° 0 mm 3 mps 766 mmHg 52%
    15:00 +17°C° 0 mm 3 mps 765 mmHg 55%
    16:00 +16°C° 0 mm 3 mps 765 mmHg 59%
    17:00 +16°C° 0 mm 2 mps 765 mmHg 62%
    18:00 +13°C° 0 mm 2 mps 765 mmHg 68%
    19:00 +10°C° 0 mm 2 mps 765 mmHg 75%
    20:00 +9°C° 0 mm 1 mps 765 mmHg 81%
    21:00 +9°C° 0 mm 1 mps 765 mmHg 82%
    22:00 +8°C° 0 mm 1 mps 765 mmHg 83%
    23:00 +7°C° 0 mm 0 mps 765 mmHg 84%

    30 March, Thursday

    Time Temperature Precipitation Wind Pressure Humidity
    00:00 +8°C° 0 mm 1 mps 765 mmHg 84%
    01:00 +8°C° 0 mm 1 mps 764 mmHg 84%
    02:00 +7°C° 0 mm 1 mps 764 mmHg 84%
    03:00 +7°C° 0 mm 1 mps 764 mmHg 84%
    04:00 +7°C° 0 mm 1 mps 764 mmHg 85%
    05:00 +7°C° 0 mm 1 mps 764 mmHg 85%
    06:00 +9°C° 0 mm 1 mps 764 mmHg 79%
    07:00 +11°C° 0 mm 1 mps 764 mmHg 74%
    08:00 +13°C° 0 mm 1 mps 764 mmHg 68%
    09:00 +15°C° 0 mm 2 mps 764 mmHg 63%
    10:00 +16°C° 0 mm 2 mps 764 mmHg 58%
    11:00 +18°C° 0 mm 3 mps 764 mmHg 53%
    12:00 +18°C° 0 mm 3 mps 764 mmHg 52%
    13:00 +19°C° 0 mm 3 mps 764 mmHg 50%
    14:00 +19°C° 0 mm 3 mps 764 mmHg 49%
    15:00 +19°C° 0 mm 3 mps 764 mmHg 53%
    16:00 +18°C° 0 mm 3 mps 764 mmHg 58%
    17:00 +17°C° 0 mm 3 mps 764 mmHg 62%
    18:00 +14°C° 0 mm 3 mps 764 mmHg 68%
    19:00 +12°C° 0 mm 3 mps 765 mmHg 75%
    20:00 +10°C° 0 mm 2 mps 765 mmHg 81%
    21:00 +9°C° 0 mm 2 mps 766 mmHg 82%
    22:00 +9°C° 0 mm 2 mps 766 mmHg 83%
    23:00 +9°C° 0 mm 2 mps 766 mmHg 84%
    Show more